Weather observations for the past three days for
Nuiqsut, Nuiqsut Airport
Imperial (Metric)
Date Time (akdt) Wind (mph) Vis. (mi.) Weather Sky Cond. Temperature (ºF) Relative Humidity Wind Chill (°F) Heat Index (°F) Pressure Precipitation (in)
Air Dwpt 6 hour altimeter (in) sea level (mb) 1 hr 3 hr 6 hr
Max. Min.
15 02:53 NE 6 4.00 Fog/Mist OVC007 39 37 93% 35 29.54 1000.5
15 01:53 NE 6 9.00 Overcast OVC006 39 36 89% 35 29.54 1000.5
15 00:53 NE 7 9.00 Overcast OVC006 39 37 93% 35 29.54 1000.4
14 23:53 NE 10 10.00 Overcast OVC007 39 36 89% 33 29.52 999.8
14 22:53 NE 13 10.00 Overcast OVC007 39 37 93% 32 29.51 999.5
14 21:53 NE 12 9.00 Overcast OVC006 39 37 44.1 39 93% 32 29.51 999.3
14 20:53 NE 15 7.00 Overcast OVC006 39.9 37 89% 32 29.51 999.3
14 19:53 NE 15 10.00 Overcast OVC007 41 37.9 89% 34 29.51 999.3
14 18:53 NE 14 5.00 Fog/Mist OVC007 41 37.9 89% 34 29.51 999.3
14 17:53 NE 14 7.00 Overcast BKN008 BKN014 OVC060 42.1 39 89% 35 29.5 999.1
14 16:53 NE 13 10.00 Overcast OVC007 43 39 86% 37 29.51 999.3
14 15:53 NE 16 10.00 Overcast OVC006 43 39.9 44.1 42.1 89% 36 29.5 998.9
14 14:53 NE 18 10.00 Overcast OVC006 44.1 41 89% 37 29.49 998.6
14 13:53 NE 14 9.00 Overcast OVC004 44.1 42.1 93% 38 29.5 998.9
14 12:53 NE 12 10.00 Overcast OVC005 42.1 39.9 92% 36 29.51 999.4
14 11:53 NE 16 10.00 Overcast OVC005 43 39 86% 36 29.5 999.0
14 10:53 NE 15 10.00 Overcast OVC004 43 39.9 89% 36 29.49 998.8
14 09:53 NE 14 10.00 Overcast OVC005 43 39.9 48 43 89% 37 29.5 999.0
14 08:53 NE 14 10.00 Overcast OVC006 44.1 39.9 85% 38 29.5 999.0
14 06:53 NE 9 10.00 Overcast OVC004 45 42.1 90% 41 29.51 999.3
14 00:53 N 9 10.00 Overcast OVC095 51.1 46.9 86% 29.54 1000.5
13 23:53 N 7 10.00 Overcast OVC100 53.1 48 83% 29.54 1000.5
13 22:53 N 8 10.00 Overcast OVC110 54 46.9 77% 29.55 1000.7
13 21:53 N 6 10.00 Partly Cloudy SCT110 57.9 48.9 68 57 72% 29.55 1000.9
13 20:53 NW 7 10.00 Fair CLR 59 48.9 69% 29.56 1000.9
13 19:53 N 8 10.00 Fair CLR 60.1 50 70% 29.56 1001.1
13 18:53 N 9 10.00 Fair CLR 61 51.1 70% 29.56 1001.1
13 17:53 N 9 10.00 Fair CLR 63 52 68% 29.56 1001.0
13 16:53 NW 9 10.00 Fair CLR 66.9 54 63% 29.55 1000.7
13 15:53 NW 8 10.00 Fair CLR 66.9 54 69.1 53.1 63% 29.55 1000.7
13 14:53 W 7 10.00 Fair CLR 68 54 61% 29.55 1000.5
13 13:53 Vrbl 3 10.00 Fair CLR 66 53.1 63% 29.55 1000.6
13 12:53 Calm 10.00 Fair CLR 63 52 68% 29.55 1000.8
13 11:53 SE 5 10.00 Fair CLR 59 50 72% 29.55 1000.8
13 10:53 E 5 10.00 Partly Cloudy SCT100 55 46.9 74% 29.56 1001.1
13 09:53 NE 9 10.00 Mostly Cloudy FEW070 BKN100 BKN120 53.1 46 53.1 46.9 77% 29.55 1000.6
13 08:53 E 6 10.00 Partly Cloudy SCT100 52 46 80% 29.57 1001.4
13 07:53 NE 7 10.00 Mostly Cloudy FEW090 BKN110 51.1 45 80% 29.57 1001.4
13 06:53 NE 8 10.00 Fair CLR 50 45 83% 47 29.58 1001.6
13 05:53 NE 8 10.00 Partly Cloudy SCT110 48.9 44.1 83% 46 29.59 1002.2
13 03:53 NE 7 10.00 Overcast OVC110 46.9 43 51.1 46.9 86% 44 29.62 1003.1
13 02:53 NE 6 10.00 Mostly Cloudy BKN120 46.9 44.1 90% 45 29.63 1003.5
13 01:53 NE 8 10.00 Fair CLR 48 43 83% 45 29.65 1004.0
13 00:53 NE 6 10.00 Fair CLR 48.9 45 86% 47 29.66 1004.5
12 23:53 N 9 10.00 Fair CLR 48.9 44.1 83% 45 29.67 1004.8
12 22:53 N 9 10.00 Fair CLR 50 44.1 80% 47 29.67 1004.9
12 21:53 N 8 10.00 Fair CLR 51.1 44.1 55 51.1 77% 29.69 1005.5
12 20:53 N 8 10.00 Fair CLR 53.1 44.1 72% 29.71 1006.1
12 19:53 N 10 10.00 Fair CLR 54 44.1 69% 29.72 1006.5
12 18:53 N 10 10.00 Fair CLR 53.1 43 69% 29.73 1006.9
12 17:53 NE 12 10.00 Fair CLR 54 43 67% 29.75 1007.5
12 16:53 N 13 10.00 Mostly Cloudy BKN100 53.1 43 69% 29.77 1008.1
12 15:53 N 10 10.00 Overcast OVC090 52 42.1 54 46 69% 29.78 1008.7
12 14:53 N 12 10.00 Overcast OVC100 53.1 42.1 66% 29.79 1009.0
12 13:53 N 12 10.00 Overcast OVC110 51.1 41 69% 29.81 1009.5
Date Time (akdt) Wind (mph) Vis. (mi.) Weather Sky Cond. Air Dwpt Max. Min. Relative Humidity Wind Chill (°F) Heat Index (°F) altimeter (in) sea level (mb) 1 hr 3 hr 6 hr
6 hour
Temperature (ºF) Pressure Precipitation (in)